Location: Caltech
(34.1382°N, 118.1253°W)
Time: 12:56:26
(UTC-08:00)

Cosmos 2084 - Visible Passes

Search period start: 23 February 2017 00:00
Search period end: 05 March 2017 00:00
Orbit: 496 x 690 km, 62.8° (Epoch: 23 February)

Date Brightness Start Highest point End Pass type
(mag) Time Alt. Az. Time Alt. Az. Time Alt. Az.
27 Feb 6.3 05:11:32 10° SSE 05:13:51 15° ESE 05:16:07 10° ENE visible
28 Feb 5.3 05:19:08 10° S 05:22:38 29° ESE 05:26:02 10° NE visible
01 Mar 3.7 05:27:32 10° SSW 05:31:29 62° ESE 05:35:17 10° NE visible
02 Mar 3.2 05:36:26 10° SW 05:40:23 62° WNW 05:44:12 10° NNE visible
03 Mar 5.9 04:07:50 11° SSE 04:10:06 17° ESE 04:12:40 10° ENE visible
03 Mar 4.0 05:45:49 10° WSW 05:49:22 31° NW 05:52:49 10° N visible
04 Mar 4.7 04:17:53 29° SSE 04:18:54 33° ESE 04:22:24 10° NE visible
